FW0236 Weather Reports


time (UTC)temp
C
wind
direction
speed
KPH
gust
KPH
rain 1hr
cm
rain 24hr
cm
rain mn
cm
humidity
%
barometer
mb
20260508230047 17 224 0.0 3.2 0.00 0.00 0.00 58 1007.5
20260508224546 17 255 0.0 4.8 0.00 0.00 0.00 56 1007.5
20260508223050 17 226 0.0 8.0 0.00 0.00 0.00 48 1007.5
20260508221544 17 216 0.0 4.8 0.00 0.00 0.00 44 1007.6
20260508220043 17 240 0.0 1.6 0.00 0.00 0.00 41 1007.6
20260508214551 17 305 0.0 4.8 0.00 0.00 0.00 40 1007.7
20260508213041 18 285 0.0 9.7 0.00 0.00 0.00 42 1007.8
20260508211542 17 212 0.0 1.6 0.00 0.00 0.00 40 1007.9
20260508210038 18 276 0.0 4.8 0.00 0.00 0.00 37 1008.0
20260508204542 17 79 0.0 6.4 0.00 0.00 0.00 42 1008.1
20260508203035 17 283 0.0 6.4 0.00 0.00 0.00 39 1008.3
20260508201532 17 245 0.0 3.2 0.00 0.00 0.00 41 1008.7
20260508200031 18 227 0.0 3.2 0.00 0.00 0.00 41 1009.0
20260508194527 17 149 0.0 6.4 0.00 0.00 0.00 42 1009.2
20260508193025 17 275 0.0 6.4 0.00 0.00 0.00 42 1009.5
20260508191525 17 236 0.0 4.8 0.00 0.00 0.00 38 1009.8
20260508190026 17 224 0.0 6.4 0.00 0.00 0.00 38 1009.9
20260508184518 17 207 0.0 9.7 0.00 0.00 0.00 38 1010.1
20260508183016 17 289 0.0 4.8 0.00 0.00 0.00 37 1010.1
20260508181512 16 226 0.0 8.0 0.00 0.00 0.00 40 1010.4
20260508180017 16 40 0.0 6.4 0.00 0.00 0.00 42 1010.7
20260508174511 16 290 0.0 4.8 0.00 0.00 0.00 40 1011.0
20260508173008 15 199 0.0 6.4 0.00 0.00 0.00 42 1011.3
20260508171501 15 223 0.0 9.7 0.00 0.00 0.00 46 1011.7
20260508170100 15 276 0.0 4.8 0.00 0.00 0.00 44 1011.8
20260508164557 14 265 0.0 6.4 0.00 0.00 0.00 42 1012.2
20260508163053 14 278 0.0 4.8 0.00 0.00 0.00 47 1012.3
20260508161551 13 281 0.0 1.6 0.00 0.00 0.00 48 1012.5
20260508154543 12 259 0.0 4.8 0.00 0.00 0.00 54 1012.6
20260508153046 12 285 0.0 4.8 0.00 0.00 0.00 57 1012.7
20260508151541 11 256 0.0 3.2 0.00 0.00 0.00 58 1012.8
20260508150037 11 271 0.0 1.6 0.00 0.00 0.00 65 1012.9
20260508144531 10 264 0.0 3.2 0.00 0.00 0.00 63 1013.0
20260508143036 10 333 0.0 1.6 0.00 0.00 0.00 73 1013.2
20260508141536 9 284 0.0 1.6 0.00 0.00 0.00 76 1013.3
20260508140023 8 297 0.0 0.0 0.00 0.00 0.00 78 1013.4
20260508134530 8 251 0.0 1.6 0.00 0.00 0.00 82 1013.5
20260508133023 7 240 0.0 1.6 0.00 0.00 0.00 88 1013.5
20260508131522 6 255 0.0 1.6 0.00 0.00 0.00 93 1013.5
20260508130022 6 322 0.0 1.6 0.00 0.00 0.00 95 1013.5
20260508124520 6 345 0.0 0.0 0.00 0.00 0.00 95 1013.4
20260508123020 5 345 0.0 0.0 0.00 0.00 0.00 96 1013.3
20260508121547 5 345 0.0 1.6 0.00 0.00 0.00 95 1013.2
20260508120019 4 143 0.0 0.0 0.00 0.00 0.00 96 1013.2
20260508114518 3 143 0.0 0.0 0.00 0.00 0.00 95 1013.0
20260508113018 3 143 0.0 0.0 0.00 0.00 0.00 95 1012.9
20260508111518 3 143 0.0 0.0 0.00 0.00 0.00 95 1012.7
20260508110016 3 143 0.0 0.0 0.00 0.00 0.00 95 1012.6
20260508104515 3 143 0.0 0.0 0.00 0.00 0.00 95 1012.7
20260508103016 3 143 0.0 0.0 0.00 0.00 0.00 95 1012.6
20260508101512 3 143 0.0 0.0 0.00 0.00 0.00 95 1012.5
20260508100010 4 143 0.0 0.0 0.00 0.00 0.00 95 1012.6
20260508094509 4 143 0.0 0.0 0.00 0.00 0.00 95 1012.6
20260508093010 4 143 0.0 0.0 0.00 0.00 0.00 95 1012.6
20260508091512 5 143 0.0 0.0 0.00 0.00 0.00 95 1012.6
20260508090008 5 143 0.0 0.0 0.00 0.00 0.00 94 1012.6
20260508084503 5 143 0.0 0.0 0.00 0.00 0.00 94 1012.6
20260508083006 5 174 0.0 0.0 0.00 0.00 0.00 94 1012.6
20260508081501 5 174 0.0 0.0 0.00 0.00 0.00 94 1012.6
20260508080002 5 174 0.0 0.0 0.00 0.00 0.00 94 1012.7
20260508074600 5 174 0.0 0.0 0.00 0.00 0.00 94 1012.7
20260508074501 5 174 0.0 0.0 0.00 0.00 0.00 94 1012.8
20260508073104 5 174 0.0 0.0 0.00 0.00 0.00 94 1012.8
20260508071600 5 174 0.0 0.0 0.00 0.00 0.00 94 1012.7
20260508064610 5 174 0.0 0.0 0.00 0.00 0.00 93 1012.6
20260508063058 5 175 0.0 0.0 0.00 0.00 0.00 93 1012.7
20260508061602 5 175 0.0 0.0 0.00 0.00 0.00 92 1012.7
20260508060106 5 175 0.0 0.0 0.00 0.00 0.00 92 1012.9
20260508054603 5 175 0.0 0.0 0.00 0.00 0.00 91 1013.0
20260508053051 6 175 0.0 0.0 0.00 0.00 0.00 90 1012.9
20260508051549 6 175 0.0 0.0 0.00 0.00 0.00 89 1012.9
20260508050050 6 173 0.0 0.0 0.00 0.00 0.00 89 1013.1
20260508044544 6 174 0.0 0.0 0.00 0.00 0.00 87 1013.0
20260508043041 7 178 0.0 0.0 0.00 0.00 0.00 83 1013.3
20260508041537 8 293 1.6 8.0 0.00 0.00 0.00 73 1013.4
20260508040036 8 28 0.0 0.0 0.00 0.00 0.00 71 1012.9
20260508034533 9 28 0.0 0.0 0.00 0.00 0.00 67 1012.7
20260508033032 9 28 0.0 0.0 0.00 0.00 0.00 62 1012.9
20260508031532 9 28 0.0 0.0 0.00 0.00 0.00 61 1013.0
20260508030031 9 28 0.0 0.0 0.00 0.00 0.00 62 1013.1
20260508024531 9 28 0.0 0.0 0.00 0.00 0.00 61 1013.3
20260508023132 9 29 0.0 0.0 0.00 0.00 0.00 60 1013.1
20260508021531 10 29 0.0 0.0 0.00 0.00 0.00 57 1013.0
20260508020028 10 303 0.0 0.0 0.00 0.00 0.00 58 1013.0
20260508014533 10 303 0.0 1.6 0.00 0.00 0.00 57 1012.9
20260508013028 10 300 0.0 0.0 0.00 0.00 0.00 56 1012.9
20260508011535 10 283 0.0 1.6 0.00 0.00 0.00 56 1012.7
20260508010031 10 269 0.0 9.7 0.00 0.00 0.00 53 1012.7
20260508004524 11 273 0.0 1.6 0.00 0.00 0.00 51 1012.6
20260508003034 11 273 0.0 3.2 0.00 0.00 0.00 47 1012.3
20260508001524 11 269 0.0 4.8 0.00 0.00 0.00 46 1012.2
20260508000023 11 286 0.0 4.8 0.00 0.00 0.00 45 1012.2
20260507234522 12 266 0.0 1.6 0.00 0.00 0.00 46 1012.2
20260507233023 12 283 0.0 4.8 0.00 0.00 0.00 46 1012.2